Home > Weather > Genoa > Past weeks

Flag for Italy Weather for the Past 2 Weeks in Genoa, Italy

Now
70 °F

Passing clouds.


Feels Like: 70 °F
Forecast: 54 / 72 °F
Wind: 13 mph from Northwest

Location: Genova / Sestri

Current Time: May 5, 2016 at 1:31:13 PM

Latest Report: May 5, 2016 at 12:50 PM


Visibility: N/A

Pressure: 30.12 "Hg

Humidity: 38%

Dew Point: 43 °F

Location of GenoaLocation

Historic Weather in Genoa — Graph

°F

Genoa Temperature Yesterday

Maximum temperature yesterday: 77 °F (at 3:20 PM)
Minimum temperature yesterday: 59 °F (at 11:50 PM)
Average temperature yesterday: 67 °F

High & Low Weather Summary for the Past Weeks

 TemperatureHumidityPressure
High77 °F (May 4, 3:20 PM)94% (Apr 23, 10:20 AM)30.24 "Hg (Apr 23, 10:20 AM)
Low48 °F (Apr 25, 6:50 AM)11% (May 4, 3:20 PM)29.50 "Hg (Apr 24, 2:20 PM)
Average61 °F58%29.90 "Hg
* Reported Apr 20 12:20 PM — May 5 12:20 PM, Genoa, Weather by CustomWeather, © 2016

Note: Actual official high and low records may vary slightly from our data, if they occured in-between our weather recording intervals... More about our weather records

Advertising

Genoa Weather History for the Previous 24 Hours

Scroll right to see more
 ConditionsComfort  
Time TempWeatherWind HumidityBarometerVisibility
12:20 PM
Thu, May 5
68 °FPassing clouds.7 mph43%30.12 "HgN/A
11:50 AM66 °FSunny.8 mph49%30.15 "Hg10 mi
11:20 AM64 °FSunny.7 mph52%30.12 "Hg10 mi
10:50 AM66 °FSunny.5 mph43%30.12 "Hg10 mi
10:20 AM66 °FPassing clouds.3 mph40%30.12 "HgN/A
9:50 AM66 °FPassing clouds.3 mph35%30.12 "HgN/A
9:20 AM63 °FPassing clouds.3 mph37%30.12 "HgN/A
8:20 AM61 °FSunny.2 mph45%30.09 "Hg10 mi
7:50 AM59 °FSunny.5 mph42%30.09 "Hg10 mi
7:20 AM57 °FSunny.6 mph41%30.07 "Hg10 mi
6:50 AM55 °FClear.6 mph44%30.07 "Hg10 mi
6:20 AM54 °FClear.8 mph51%30.07 "Hg10 mi
5:50 AM54 °FClear.6 mph47%30.04 "Hg10 mi
5:20 AM55 °FPassing clouds.6 mph41%30.04 "HgN/A
4:50 AM55 °FClear.8 mph41%30.04 "Hg10 mi
4:20 AM55 °FPassing clouds.5 mph41%30.04 "HgN/A
3:50 AM55 °FClear.6 mph44%30.04 "Hg10 mi
3:20 AM55 °FPassing clouds.5 mph41%30.04 "HgN/A
2:50 AM55 °FClear.8 mph44%30.04 "Hg10 mi
2:20 AM57 °FClear.6 mph41%30.04 "Hg10 mi
1:50 AM57 °FClear.6 mph41%30.04 "Hg10 mi
1:20 AM57 °FClear.6 mph44%30.07 "Hg10 mi
12:50 AM59 °FClear.6 mph42%30.07 "Hg10 mi
12:20 AM59 °FClear.5 mph42%30.04 "Hg10 mi
11:50 PM
Wed, May 4
59 °FClear.6 mph42%30.04 "Hg10 mi
11:20 PM61 °FClear.7 mph39%30.04 "Hg10 mi
10:50 PM61 °FClear.8 mph39%30.04 "Hg10 mi
10:20 PM61 °FClear.6 mph39%30.04 "Hg10 mi
9:50 PM63 °FClear.5 mph39%30.04 "Hg10 mi
9:20 PM63 °FPassing clouds.6 mph37%30.04 "HgN/A
8:50 PM64 °FSunny.No wind43%30.04 "Hg10 mi
8:20 PM64 °FSunny.2 mph43%30.04 "Hg10 mi
7:50 PM66 °FPassing clouds.5 mph43%30.01 "HgN/A
7:20 PM68 °FSunny.2 mph43%30.01 "Hg10 mi
6:50 PM68 °FSunny.2 mph49%30.01 "Hg10 mi
6:20 PM68 °FPassing clouds.7 mph49%30.01 "HgN/A
5:50 PM68 °FSunny.8 mph53%30.01 "Hg10 mi
5:20 PM68 °FSunny.12 mph53%30.01 "Hg10 mi
4:50 PM72 °FPassing clouds.9 mph29%30.01 "HgN/A
4:20 PM77 °FPassing clouds.7 mph11%30.01 "HgN/A
3:50 PM77 °FPassing clouds.8 mph13%30.01 "HgN/A
3:20 PM77 °FPassing clouds.9 mph11%30.01 "HgN/A
2:50 PM75 °FPassing clouds.8 mph13%30.01 "HgN/A
2:20 PM75 °FPassing clouds.9 mph13%30.04 "HgN/A
1:50 PM73 °FSunny.9 mph17%30.04 "Hg10 mi
1:20 PM73 °FPassing clouds.12 mph14%30.04 "HgN/A
Weather by CustomWeather, © 2016

See weather overviewHow to use our weather pages